Regional Weather Roundup
Issued by NWS

Home | Current Version | Previous Version | Text Only | Print | Product List | Glossary On
Versions: 1 2 3 4 5 6 7 8 9 10 11 12 13 14 15 16 17 18 19 20 21 22 23 24 25 26 27 28 29 30 31 32 33 34 35 36 37 38 39 40 41 42 43 44 45 46 47 48 49 50
106
ASUS44 KJAN 260620
RWRMS

MISSISSIPPI HOURLY WEATHER ROUNDUP
NATIONAL WEATHER SERVICE JACKSON MS
100 AM CDT TUE JUL 26 2016

NOTE: "FAIR: INDICATES FEW OR NO CLOUDS BELOW 12,000 FEET WITH NO
SIGNIFICANT WEATHER AND/OR OBSTRUCTIONS TO VISIBILITY.

MSZ001>002-007>008-010>013-018>021-025>028-034>036-260700-
NORTHWEST MISSISSIPPI

CITY           SKY/WX    TMP DP  RH WIND       PRES   REMARKS
CLEVELAND      FAIR      79  79  99 S6        29.94F
GREENWOOD      CLEAR     77  71  82 CALM      29.96F
6HR MIN TEMP:  77; 6HR MAX TEMP:  92;

GREENVILLE     CLEAR     80  74  81 SE5       29.95S
6HR MIN TEMP:  79; 6HR MAX TEMP:  92;

OXFORD         FAIR      75  72  88 E3        30.00F
WINONA         FAIR      74  74  97 CALM      29.97F
$$

MSZ003>006-009-014>017-022>024-029>033-037>039-260700-
NORTHEAST MISSISSIPPI

CITY           SKY/WX    TMP DP  RH WIND       PRES   REMARKS
ABERDEEN       FAIR      75  57  53 CALM      30.00S
COLUMBUS AFB   CLOUDY    80  75  86 SE5       29.98S
6HR MIN TEMP:  79; 6HR MAX TEMP:  92;

GOLDN TRIANGLE PTCLDY    81  68  65 SE10      29.98F
TUPELO           N/A     79  73  82 MISG        N/A
6HR MIN TEMP:  79; 6HR MAX TEMP:  92;

$$

MSZ040-058-260700-
CENTRAL MISSISSIPPI

CITY           SKY/WX    TMP DP  RH WIND       PRES   REMARKS
JACKSON INTL   CLEAR     76  73  91 E5        29.96F
6HR MIN TEMP:  76; 6HR MAX TEMP:  89;

JACKSON HAWKNS CLEAR     77  73  87 CALM      29.97S
6HR MIN TEMP:  77; 6HR MAX TEMP:  91; 6HR PCP: TRACE;

MADISON        FAIR      73  72  94 CALM      29.96F
MERIDIAN KEY   CLEAR     76  71  85 CALM      29.99F
6HR MIN TEMP:  76; 6HR MAX TEMP:  93;

MERIDIAN NAS   CLEAR     78  69  73 CALM      29.99F
6HR MIN TEMP:  78; 6HR MAX TEMP:  94;

VICKSBURG VKS  CLEAR     77  73  88 CALM      29.95S
$$

MSZ059>079-260700-
SOUTH MISSISSIPPI

CITY           SKY/WX    TMP DP  RH WIND       PRES   REMARKS
BROOKHAVEN     FAIR     N/A N/A N/A CALM      29.97F
COLUMBIA       FAIR      72  72 100 CALM      29.99F
HATTIESBURG    CLEAR     76  74  93 E3        29.96F
6HR MIN TEMP:  76; 6HR MAX TEMP:  83;

MCCOMB         CLEAR     75  72  90 E5        29.95F
6HR MIN TEMP:  75; 6HR MAX TEMP:  80; 6HR PCP: TRACE;

NATCHEZ        CLEAR     75  72  88 N5        29.94S
6HR MIN TEMP:  75; 6HR MAX TEMP:  79;

PINE BELT      CLEAR     75  72  88 E5        29.97F
6HR MIN TEMP:  61; 6HR MAX TEMP:  79;

$$

MSZ080>082-260700-
COASTAL MISSISSIPPI

CITY           SKY/WX    TMP DP  RH WIND       PRES   REMARKS
BILOXI         RAIN      79  79 100 E8        29.92F
6HR MIN TEMP:  78; 6HR MAX TEMP:  87; 6HR PCP:  0.06;

PASCAGOULA     CLEAR     78  78 100 NE5       29.94F
6HR MIN TEMP:  77; 6HR MAX TEMP:  86;

GULFPORT       CLEAR     78  76  93 NE7       29.92F
6HR MIN TEMP:  77; 6HR MAX TEMP:  86; 6HR PCP:  0.26;

$$

LAZ007>009-015>016-023>026-260700-
NORTHEAST LOUISIANA

CITY           SKY/WX    TMP DP  RH WIND       PRES   REMARKS
BASTROP        FAIR      74  74  98 CALM      29.94F
TALLULAH/VBURG CLEAR     76  74  93 CALM      29.94F
6HR MIN TEMP:  76; 6HR MAX TEMP:  94;

VIDALIA        FAIR      77  74  90 CALM      29.96S
$$




USA.gov is the U.S. government's official web portal to all federal, state and local government web resources and services.